Flag for Netherlands Weather past 2 weeks in Hilversum, Netherlands

Now
54 °F

Clear.


Feels Like: 52 °F
Forecast: 55 / 68 °F
Wind: 6 mph from East

Location: Amsterdam Schiphol Airport

Current Time: Aug 27, 2014 at 11:59:51 PM

Latest Report: Aug 27, 2014 at 11:25 PM


Visibility: 10 mi

Pressure: 30.01 "Hg

Humidity: 94%

Dew point: 52 °F

Location of HilversumLocation

Historic Weather in Hilversum — Graph

°F

Hilversum temperature yesterday

Maximum temperature yesterday: 63 °F (at 4:55 PM)
Minimum temperature yesterday: 55 °F (at 12:25 AM)
Average temperature yesterday: 58 °F

Past Weeks' High & Low Weather Summary

 TemperatureHumidityPressure
High70 °F (Aug 27, 3:55 PM)100% (Aug 14, 3:55 AM)30.07 "Hg (Aug 14, 3:55 AM)
Low46 °F (Aug 21, 5:55 AM)53% (Aug 13, 1:55 PM)29.59 "Hg (Aug 18, 3:55 AM)
Average58 °F82%29.86 "Hg
* Reported Aug 12 10:25 PM — Aug 27 10:25 PM, Hilversum, Weather by CustomWeather, © 2014

Note: Actual official high and low records may vary slightly from our data, if they occured in-between our weather recording intervals... More about our weather records

Advertising

Hilversum weather history for previous 24 hours

 ConditionsComfort  
Time TempWeatherWind HumidityBarometerVisibility
10:25 PM
Aug 27
55 °FClear.6 mph94%30.01 "Hg10 mi
9:55 PM55 °FClear.5 mph94%30.01 "Hg10 mi
9:25 PM55 °FSunny.6 mph88%30.01 "Hg10 mi
8:55 PM55 °FSunny.6 mph88%29.98 "Hg10 mi
7:55 PM61 °FSunny.8 mph83%29.98 "Hg10 mi
7:25 PM64 °FSunny.7 mph73%29.98 "Hg10 mi
6:55 PM66 °FPassing clouds.8 mph68%30.01 "HgN/A
6:25 PM68 °FPassing clouds.7 mph60%30.01 "HgN/A
5:55 PM68 °FPassing clouds.7 mph56%30.01 "HgN/A
4:55 PM68 °FPassing clouds.7 mph56%30.01 "HgN/A
4:25 PM68 °FPassing clouds.9 mph56%30.01 "HgN/A
3:55 PM70 °FPassing clouds.8 mph53%30.01 "HgN/A
3:25 PM68 °FPassing clouds.7 mph56%30.01 "HgN/A
2:55 PM68 °FPassing clouds.7 mph60%30.01 "HgN/A
2:25 PM68 °FPassing clouds.7 mph56%30.01 "HgN/A
1:55 PM66 °FPassing clouds.7 mph56%30.04 "HgN/A
1:25 PM66 °FPassing clouds.6 mph60%30.04 "HgN/A
12:55 PM64 °FPassing clouds.6 mph64%30.04 "HgN/A
12:25 PM64 °FPassing clouds.6 mph64%30.04 "HgN/A
11:55 AM64 °FPassing clouds.5 mph60%30.04 "HgN/A
11:25 AM63 °FPassing clouds.6 mph59%30.04 "HgN/A
10:55 AM63 °FPassing clouds.7 mph68%30.01 "HgN/A
10:25 AM61 °FPassing clouds.6 mph72%30.01 "HgN/A
9:55 AM61 °FPassing clouds.3 mph72%30.01 "HgN/A
9:25 AM59 °FPassing clouds.6 mph88%30.01 "HgN/A
8:55 AM57 °FPassing clouds.3 mph88%29.98 "HgN/A
8:25 AM55 °FFog.3 mph100%29.98 "HgN/A
7:55 AM50 °FFog.2 mph100%29.98 "Hg6 mi
7:25 AM50 °FFog.1 mph100%29.98 "Hg5 mi
6:55 AM46 °FFog.2 mph100%29.95 "Hg6 mi
6:25 AM48 °FFog.2 mph100%29.95 "Hg5 mi
5:55 AM48 °FFog.1 mph100%29.95 "Hg5 mi
5:25 AM46 °FClear.2 mph100%29.95 "Hg10 mi
4:55 AM48 °FFog.2 mph100%29.95 "HgN/A
4:25 AM48 °FFog.2 mph100%29.92 "HgN/A
3:55 AM50 °FClear.2 mph94%29.92 "Hg10 mi
3:25 AM52 °FClear.5 mph100%29.92 "Hg10 mi
2:55 AM52 °FClear.5 mph94%29.92 "Hg10 mi
2:25 AM52 °FClear.5 mph94%29.92 "Hg10 mi
1:55 AM52 °FClear.5 mph94%29.92 "Hg10 mi
1:25 AM52 °FClear.6 mph94%29.89 "Hg10 mi
12:55 AM54 °FClear.7 mph94%29.89 "Hg10 mi
12:25 AM54 °FClear.8 mph94%29.89 "Hg10 mi
11:55 PM
Aug 26
55 °FPassing clouds.8 mph88%29.86 "HgN/A
11:25 PM55 °FPassing clouds.9 mph88%29.86 "HgN/A
Weather by CustomWeather, © 2014

See weather overviewHow to use our weather pages